Tracking 34717 objects as of 15-Jul-2026
HD Live streaming from Space Station
objects crossing your sky now

METEOR 2-11 DEB

Track METEOR 2-11 DEB now!
10-day predictions


NORAD ID: 40317
Int'l Code: 1984-072C
Perigee: 895.7 km
Apogee: 909.5 km
Inclination: 82.5 °
Period: 102.9 minutes
Semi major axis: 7273 km
RCS: Unknown
Launch date: July 5, 1984
Source: Commonwealth of Independent States (former USSR) (CIS)
Launch site: PLESETSK MISSILE AND SPACE COMPLEX (PKMTR)

Note: This is SATELLITE DEBRIS
Your satellite tracking list
Your tracking list is empty




NASA's NSSDC Master Catalog

Two Line Element Set (TLE):
1 40317U 84072C   26193.16259396  .00000280  00000-0  18128-3 0  9991
2 40317  82.5212 345.4614 0009484 354.0025   6.1029 13.99513830589538
Source of the keplerian elements: AFSPC